Date String (YYYY-MM-DD hh:mm:ss) UTC,Instrument flags,absolute air pressure of the measurement (hPa),sample flow rate (lpm),inlet stack bypass flow (lpm),air temperature of the measurement (°C),ambient temperature measured by the external sensor (°C),aerosol sample conditioner tube jacket temperature (°C),OPC LED temperature (°C),internal box temperature (°C),relative humidity of the measurement (%),span deviation,mass concentration of particles derived from Lorenz-Mie calculation of OPC scattering (μg/m³),mass concentration of particles derived from Lorenz-Mie calculation of OPC scattering (μg/m³),mass concentration of particles derived from Lorenz-Mie calculation of OPC scattering (μg/m³)
DateTimeUTC,F1_M11,P_M11,Q1_M11,Q2_M11,T1_M11,T2_M11,T3_M11,T4_M11,T5_M11,U1_M11,ZSPAN_M11,X0_M11,X2_M11,X1_M11
2024-01-07 02:00:00,SystemResetWarning,0820.0,4.99,000.00,018.6,017.0,000.0,027.2,020.0,6.6,0000.0,0002.33,0000.94,0000.63
2024-01-07 02:01:00,SystemResetWarning,0820.1,5.00,000.00,018.6,017.1,000.0,027.2,020.0,6.6,0000.0,0002.40,0000.96,0000.63
2024-01-07 02:02:00,SystemResetWarning,0820.0,5.00,000.00,018.6,017.1,000.0,027.2,020.0,6.6,0000.0,0002.54,0000.99,0000.63
2024-01-07 02:03:00,SystemResetWarning,0820.0,5.00,000.00,018.6,017.1,000.0,027.2,020.0,6.6,0000.0,0002.56,0001.00,0000.63
2024-01-07 02:04:00,SystemResetWarning,0820.0,5.00,000.00,018.6,017.1,000.0,027.2,020.0,6.6,0000.0,0002.65,0001.04,0000.63
2024-01-07 02:05:00,SystemResetWarning,0820.0,5.00,000.00,018.6,017.1,000.0,027.2,020.0,6.6,0000.0,0002.69,0001.05,0000.64
2024-01-07 02:06:00,SystemResetWarning,0820.0,5.00,000.00,018.6,017.1,000.0,027.2,020.0,6.6,0000.0,0002.60,0001.03,0000.64
2024-01-07 02:07:00,SystemResetWarning,0820.0,5.00,000.00,018.6,017.1,000.0,027.2,020.0,6.6,0000.0,0002.63,0001.04,0000.64
2024-01-07 02:08:00,SystemResetWarning,0820.0,5.00,000.00,018.6,017.1,000.0,027.2,020.0,6.6,0000.0,0001.76,0001.00,0000.65
2024-01-07 02:09:00,SystemResetWarning,0820.0,5.00,000.00,018.6,017.1,000.0,027.2,020.0,6.6,0000.0,0002.41,0001.00,0000.64
2024-01-07 02:10:00,SystemResetWarning,0820.0,5.00,000.00,018.6,017.1,000.0,027.2,020.0,6.6,0000.0,0002.59,0000.98,0000.64
2024-01-07 02:11:00,SystemResetWarning,0820.0,5.00,000.00,018.6,017.2,000.0,027.2,020.0,6.6,0000.0,0002.46,0000.95,0000.64
2024-01-07 02:12:00,SystemResetWarning,0820.1,5.00,000.00,018.6,017.2,000.0,027.2,020.0,6.6,0000.0,0002.49,0000.95,0000.64
2024-01-07 02:13:00,SystemResetWarning,0820.0,5.00,000.00,018.6,017.2,000.0,027.2,020.0,6.6,0000.0,0002.45,0000.94,0000.64
2024-01-07 02:14:00,SystemResetWarning,0820.1,4.99,000.00,018.6,017.2,000.0,027.2,020.0,6.7,0000.0,0002.39,0000.90,0000.63
2024-01-07 02:15:00,SystemResetWarning,0820.0,5.00,000.00,018.6,017.2,000.0,027.2,020.0,6.7,0000.0,0002.35,0000.88,0000.63
2024-01-07 02:16:00,SystemResetWarning,0820.0,5.01,000.00,018.6,017.2,000.0,027.2,020.0,6.7,0000.0,0002.27,0000.85,0000.63
2024-01-07 02:17:00,SystemResetWarning,0820.0,5.00,000.00,018.6,017.2,000.0,027.2,020.0,6.7,0000.0,0002.23,0000.84,0000.63
2024-01-07 02:18:00,SystemResetWarning,0820.0,5.00,000.00,018.6,017.2,000.0,027.2,020.0,6.7,0000.0,0002.22,0000.83,0000.62
2024-01-07 02:19:00,SystemResetWarning,0820.0,5.00,000.00,018.6,017.2,000.0,027.2,020.0,6.7,0000.0,0002.24,0000.85,0000.62
2024-01-07 02:20:00,SystemResetWarning,0820.0,5.00,000.00,018.6,017.2,000.0,027.2,020.0,6.7,0000.0,0001.88,0000.85,0000.62
2024-01-07 02:21:00,SystemResetWarning,0820.0,4.99,000.00,018.6,017.2,000.0,027.2,020.0,6.8,0000.0,0001.40,0000.85,0000.63
2024-01-07 02:22:00,SystemResetWarning,0820.0,4.99,000.00,018.6,017.2,000.0,027.2,020.0,6.8,0000.0,0001.46,0000.86,0000.63
2024-01-07 02:23:00,SystemResetWarning,0820.0,4.99,000.00,018.6,017.2,000.0,027.2,020.0,6.8,0000.0,0001.46,0000.87,0000.62
2024-01-07 02:24:00,SystemResetWarning,0820.1,5.00,000.00,018.6,017.2,000.0,027.1,020.1,6.8,0000.0,0001.46,0000.85,0000.62
2024-01-07 02:25:00,SystemResetWarning,0820.1,5.01,000.00,018.7,017.8,000.0,027.1,020.4,6.8,0000.0,0001.54,0000.88,0000.63
2024-01-07 02:26:00,SystemResetWarning,0820.2,4.99,000.00,018.8,018.6,000.0,027.1,020.6,6.8,0000.0,0001.60,0000.91,0000.64
2024-01-07 02:27:00,SystemResetWarning,0820.1,4.99,000.00,018.8,018.6,000.0,027.1,020.3,6.8,0000.0,0001.70,0000.94,0000.64
2024-01-07 02:28:00,SystemResetWarning,0820.1,4.99,000.00,018.8,018.5,000.0,027.1,020.0,6.8,0000.0,0001.74,0000.96,0000.65
2024-01-07 02:29:00,SystemResetWarning,0820.0,5.00,000.00,018.8,018.3,000.0,027.1,020.0,6.8,0000.0,0001.73,0000.97,0000.66
2024-01-07 02:30:00,SystemResetWarning,0820.1,5.01,000.00,018.7,018.2,000.0,027.1,020.0,6.7,0000.0,0001.87,0000.95,0000.67
2024-01-07 02:31:00,SystemResetWarning,0820.1,5.01,000.00,018.7,018.1,000.0,027.1,020.0,6.7,0000.0,0002.08,0000.95,0000.67
2024-01-07 02:32:00,SystemResetWarning,0820.1,4.99,000.00,018.7,018.0,000.0,027.1,020.0,6.7,0000.0,0002.03,0000.94,0000.68
2024-01-07 02:33:00,SystemResetWarning,0820.1,4.99,000.00,018.7,017.9,000.0,027.1,020.0,6.6,0000.0,0002.01,0000.95,0000.68
2024-01-07 02:34:00,SystemResetWarning,0820.1,5.01,000.00,018.7,017.9,000.0,027.1,020.0,6.5,0000.0,0001.94,0000.94,0000.69
2024-01-07 02:35:00,SystemResetWarning,0820.0,5.00,000.00,018.7,017.8,000.0,027.1,020.0,6.5,0000.0,0002.02,0000.98,0000.70
2024-01-07 02:36:00,SystemResetWarning,0820.3,5.01,000.00,018.7,017.8,000.0,027.1,020.0,6.4,0000.0,0001.98,0000.99,0000.71
2024-01-07 02:37:00,SystemResetWarning,0820.1,5.01,000.00,018.7,017.8,000.0,027.2,020.0,6.3,0000.0,0002.08,0001.01,0000.72
2024-01-07 02:38:00,SystemResetWarning,0820.0,5.00,000.00,018.7,017.7,000.0,027.2,020.0,6.3,0000.0,0002.23,0001.01,0000.73
2024-01-07 02:39:00,SystemResetWarning,0820.0,4.99,000.00,018.7,017.7,000.0,027.2,020.0,6.3,0000.0,0002.23,0001.01,0000.75
2024-01-07 02:40:00,SystemResetWarning,0819.9,4.99,000.00,018.7,017.7,000.0,027.2,020.0,6.3,0000.0,0002.21,0001.01,0000.76
2024-01-07 02:41:00,SystemResetWarning,0819.9,5.00,000.00,018.7,017.6,000.0,027.2,020.0,6.3,0000.0,0002.10,0001.01,0000.77
2024-01-07 02:42:00,SystemResetWarning,0820.1,5.01,000.00,018.7,017.6,000.0,027.2,020.0,6.4,0000.0,0001.85,0001.03,0000.77
2024-01-07 02:43:00,SystemResetWarning,0820.3,5.01,000.00,018.7,017.6,000.0,027.2,020.0,6.5,0000.0,0001.93,0001.06,0000.78
2024-01-07 02:44:00,SystemResetWarning,0820.0,5.01,000.00,018.7,017.5,000.0,027.2,020.0,6.5,0000.0,0002.05,0001.09,0000.78
2024-01-07 02:45:00,SystemResetWarning,0820.2,4.99,000.00,018.7,017.5,000.0,027.2,020.0,6.4,0000.0,0002.05,0001.08,0000.78
2024-01-07 02:46:00,SystemResetWarning,0820.0,4.99,000.00,018.7,017.5,000.0,027.2,020.0,6.3,0000.0,0002.03,0001.07,0000.78
2024-01-07 02:47:00,SystemResetWarning,0820.1,5.00,000.00,018.6,017.5,000.0,027.2,020.0,6.4,0000.0,0001.94,0001.05,0000.78
2024-01-07 02:48:00,SystemResetWarning,0820.0,5.01,000.00,018.6,017.5,000.0,027.2,020.0,6.4,0000.0,0001.80,0001.01,0000.77
2024-01-07 02:49:00,SystemResetWarning,0820.0,5.01,000.00,018.6,017.5,000.0,027.2,020.0,6.4,0000.0,0001.56,0000.99,0000.77
2024-01-07 02:50:00,SystemResetWarning,0820.1,4.99,000.00,018.6,017.4,000.0,027.2,020.0,6.4,0000.0,0001.57,0001.01,0000.76
2024-01-07 02:51:00,SystemResetWarning,0820.0,5.00,000.00,018.6,017.4,000.0,027.2,020.0,6.4,0000.0,0001.62,0001.01,0000.74
2024-01-07 02:52:00,SystemResetWarning,0820.0,4.99,000.00,018.6,017.4,000.0,027.2,020.0,6.4,0000.0,0001.68,0001.00,0000.73
2024-01-07 02:53:00,SystemResetWarning,0820.0,5.00,000.00,018.6,017.4,000.0,027.2,020.0,6.4,0000.0,0001.62,0000.97,0000.72
2024-01-07 02:54:00,SystemResetWarning,0820.1,5.00,000.00,018.6,017.3,000.0,027.2,020.0,6.4,0000.0,0001.68,0000.95,0000.72
2024-01-07 02:55:00,SystemResetWarning,0820.1,5.01,000.00,018.7,017.3,000.0,027.2,020.0,6.4,0000.0,0001.60,0000.92,0000.72
2024-01-07 02:56:00,SystemResetWarning,0820.0,5.00,000.00,018.7,017.3,000.0,027.2,020.0,6.3,0000.0,0001.64,0000.93,0000.71
2024-01-07 02:57:00,SystemResetWarning,0820.1,5.01,000.00,018.6,017.3,000.0,027.2,020.0,6.4,0000.0,0001.64,0000.93,0000.71
2024-01-07 02:58:00,SystemResetWarning,0820.1,5.01,000.00,018.6,017.3,000.0,027.2,020.0,6.4,0000.0,0001.67,0000.93,0000.70
2024-01-07 02:59:00,SystemResetWarning,0820.0,5.00,000.00,018.6,017.3,000.0,027.2,020.0,6.4,0000.0,0001.70,0000.92,0000.69
